星链-4732 (STARLINK-4732 )

导读

STARLINK-4732是美国SpaceX公司星链(Starlink)卫星互联网星座中的一颗卫星,于2022年9月19日发射。星链计划旨在构建全球卫星互联网网络,为全球偏远、欠发达地区以及应急场景提供互联网接入服务,这类低轨卫星承担着为地面用户提供宽带网络连接的功能。

Basic Information
目录编号:
53870
目录名称:
STARLINK-4732
国际标识:
2022-114BE
轨道中心:
EARTH
卫星名称:
星链-4732
卫星全名:
星链-4732 (STARLINK-4732 )
卫星状态:
在轨 (已飞行1367 天)
发射日期:
2022-09-19 UTC
国别 :
美国 (US)
星等 :
--
Orbit Information
数据来源 国际轨道数据 AOE轨道数据
星历时间 2026-06-17T01:18:18+0800
16小时前
查看轨道信息
2026-06-16T22:00:00+0800
19小时前
查看轨道信息
半长轴 6917.91km 6917.893km
偏心率 0.0001239 0.0001463
轨道倾角 53.160° 53.159°
近地点辐角 84.899° 67.033°
升交点赤经 179.391° 180.017°
平近点角 275.215° 264.659°
近地点 538.915km 538.743km
远地点 540.631km 540.769km
周期 95.438分钟 95.438分钟
每日圈数 15.088306 15.088359
Detailed Information
固有亮度:
5
最大亮度:
2.5
卫星平台:
Starlink v1.5
覆盖范围:
全球
运营商:
太空探索技术公司
运营商所在国:
美国
制造商(研发单位):
太空探索技术公司
制造商所在国:
美国
使用方式:
暂无
Satellite Introduction
星链(Starlink)计划是由太空探索技术公司(SpaceX)提出的一个巨型低轨卫星互联网星座项目,计划在2019年至2024年间在太空搭建由约1.2万颗卫星组成的“星链”网络,其中1584颗将部署在地球上空550千米处的近地轨道,并从2020年开始工作。该卫星仍在工作。
2D Orbit Map
3D Orbit Map
Orbit Altitude Analysis Chart
Orbit Inclination Analysis Chart
Orbit Comprehensive Analysis Chart
View Comprehensive Chart